Regional Weather Roundup
Issued by NWS Goodland, KS

Home | Current Version | Previous Version | Text Only | Print | Product List | Glossary On
Versions: 1 2 3 4 5 6 7 8 9 10 11 12 13 14 15 16 17 18 19 20 21 22 23 24 25 26 27 28 29 30 31 32 33 34 35 36 37 38 39 40 41 42 43 44 45 46 47 48 49 50
000
ASUS43 KGLD 230108
RWRGLD

GOODLAND FORECAST AREA HOURLY WEATHER ROUNDUP
NATIONAL WEATHER SERVICE GOODLAND KS
600 PM MST MON DEC 22 2014

...OFFICIAL OBSERVATIONS...

CITY           SKY/WX    TMP DP  RH WIND       PRES   REMARKS
GOODLAND KS    PTCLDY    35  25  66 NW15      29.67R
HILL CITY KS   CLEAR     38  23  55 W8        29.61R
IMPERIAL NEB   PTCLDY    34  24  67 W15       29.62R
MCCOOK NEB     CLEAR     38  24  57 W15       29.59R
AKRON CO       CLOUDY    31  23  72 NW14      29.72R
BURLINGTON CO  PTCLDY    32  26  78 W13       29.69R
LIMON CO       CLOUDY    28  25  88 W15       29.73R WCI  16
$$

...UNOFFICIAL OBSERVATIONS...

CITY           SKY/WX    TMP DP  RH WIND       PRES   REMARKS
COLBY KS       CLEAR     36  30  80 W12       29.66R
GOVE KS          N/A     36  32  85 MISG        N/A
TRIBUNE KS     PTCLDY    36  28  75 W9        29.72
KIT CARSON CO    N/A     32  26  79 MISG        N/A
YUMA CO          N/A     34  26  71 NW20        N/A
$$


USA.gov is the U.S. government's official web portal to all federal, state and local government web resources and services.